GW0273 Weather Reports


time (UTC)temp
C
wind
direction
speed
KPH
gust
KPH
rain 1hr
cm
rain 24hr
cm
rain mn
cm
humidity
%
barometer
mb
20260506110034 18 226 22.5 48.3 0.00 0.00 0.00 68 1014.1
20260506104531 18 256 17.7 40.2 0.00 0.00 0.00 69 1013.8
20260506103032 17 254 11.3 29.0 0.00 0.00 0.00 71 1013.7
20260506101531 17 205 12.9 30.6 0.00 0.00 0.00 71 1013.6
20260506100034 17 255 12.9 43.5 0.00 0.00 0.00 71 1013.8
20260506094534 16 189 17.7 37.0 0.00 0.00 0.00 72 1013.8
20260506093034 15 193 11.3 35.4 0.00 0.00 0.00 73 1013.4
20260506091534 15 215 8.0 22.5 0.00 0.00 0.00 72 1013.2
20260506090031 15 198 8.0 20.9 0.00 0.00 0.00 71 1013.1
20260506084536 15 223 8.0 19.3 0.00 0.00 0.00 70 1013.0
20260506083032 15 251 11.3 24.1 0.00 0.00 0.00 69 1012.7
20260506081541 15 225 6.4 17.7 0.00 0.00 0.00 68 1012.7
20260506073036 15 190 8.0 27.4 0.00 0.00 0.00 70 1012.4
20260506071534 15 229 8.0 20.9 0.00 0.00 0.00 70 1012.3
20260506061538 15 206 14.5 33.8 0.00 0.00 0.00 67 1012.4
20260506044538 15 237 11.3 29.0 0.00 0.00 0.00 68 1012.4
20260506043033 15 230 8.0 25.7 0.00 0.00 0.00 67 1012.5
20260506041539 16 194 14.5 30.6 0.00 0.00 0.00 67 1012.5
20260506040035 16 245 14.5 30.6 0.00 0.00 0.00 66 1012.6
20260506034534 16 202 12.9 30.6 0.00 0.00 0.00 65 1012.5
20260506033034 16 234 14.5 32.2 0.00 0.00 0.00 64 1012.3
20260506031538 16 228 9.7 25.7 0.00 0.00 0.00 64 1012.1
20260506030032 16 221 8.0 22.5 0.00 0.00 0.00 64 1011.9
20260506024540 16 205 9.7 24.1 0.00 0.00 0.00 63 1012.1
20260506023032 16 206 8.0 27.4 0.00 0.00 0.00 61 1012.0
20260506021534 17 214 8.0 22.5 0.00 0.00 0.00 60 1012.0
20260506020031 17 228 12.9 29.0 0.00 0.00 0.00 60 1011.9
20260506014534 17 221 9.7 30.6 0.00 0.00 0.00 59 1012.0
20260506013034 17 198 14.5 37.0 0.00 0.00 0.00 57 1012.1
20260506011558 17 244 14.5 30.6 0.00 0.00 0.00 55 1012.0
20260506010036 17 227 9.7 33.8 0.00 0.00 0.00 53 1011.7
20260506004540 17 222 16.1 38.6 0.00 0.00 0.00 52 1011.5
20260506003034 17 229 11.3 33.8 0.00 0.00 0.00 50 1011.3
20260506001531 17 258 11.3 22.5 0.00 0.00 0.00 48 1011.0
20260506000051 17 200 12.9 20.9 0.00 0.00 0.00 47 1011.0
20260505234540 17 223 4.8 17.7 0.00 0.00 0.00 47 1010.8
20260505233035 18 245 6.4 19.3 0.00 0.00 0.00 46 1010.5
20260505231534 18 0 9.7 22.5 0.00 0.00 0.00 45 1010.3
20260505230051 18 190 14.5 30.6 0.00 0.00 0.00 45 1010.1
20260505224539 19 228 11.3 30.6 0.00 0.00 0.00 44 1010.1
20260505223031 19 225 14.5 33.8 0.00 0.00 0.00 44 1010.2
20260505221532 20 205 16.1 27.4 0.00 0.00 0.00 44 1010.2
20260505220039 20 217 16.1 37.0 0.00 0.00 0.00 43 1010.2
20260505214534 21 216 19.3 41.8 0.00 0.00 0.00 42 1010.0
20260505213034 21 180 22.5 46.7 0.00 0.00 0.00 44 1009.8
20260505211537 22 215 19.3 35.4 0.00 0.00 0.00 40 1009.8
20260505210035 23 216 11.3 25.7 0.00 0.00 0.00 37 1009.6
20260505204543 23 184 20.9 45.1 0.00 0.00 0.00 35 1009.7
20260505203037 23 232 16.1 41.8 0.00 0.00 0.00 38 1009.7
20260505201532 23 281 17.7 32.2 0.00 0.00 0.00 37 1009.7
20260505200032 23 192 11.3 45.1 0.00 0.00 0.00 37 1009.7
20260505194543 22 216 19.3 49.9 0.00 0.00 0.00 38 1009.7
20260505193037 23 215 11.3 37.0 0.00 0.00 0.00 40 1009.6
20260505191534 23 171 11.3 35.4 0.00 0.00 0.00 42 1009.6
20260505190038 22 186 16.1 40.2 0.00 0.00 0.00 41 1009.5
20260505184537 22 194 20.9 41.8 0.00 0.00 0.00 42 1009.5
20260505183034 23 184 16.1 48.3 0.00 0.00 0.00 40 1009.5
20260505181558 22 180 19.3 41.8 0.00 0.00 0.00 43 1009.4
20260505180045 22 192 16.1 32.2 0.00 0.00 0.00 42 1009.5
20260505174534 22 215 14.5 27.4 0.00 0.00 0.00 44 1009.5
20260505173034 21 201 17.7 32.2 0.00 0.00 0.00 44 1009.7
20260505171531 20 159 19.3 32.2 0.00 0.00 0.00 48 1009.7
20260505170033 17 105 6.4 17.7 0.00 0.00 0.00 54 1009.9
20260505164530 16 54 8.0 19.3 0.00 0.28 0.00 56 1010.0
20260505163031 20 105 9.7 20.9 0.00 0.28 0.00 48 1010.0
20260505161532 19 225 12.9 22.5 0.00 0.28 0.00 52 1010.0
20260505153032 18 180 11.3 24.1 0.00 0.74 0.00 55 1010.0
20260505151534 17 227 11.3 24.1 0.00 0.74 0.00 54 1010.3
20260505124542 13 259 12.9 35.4 0.00 1.50 0.00 56 1010.3
20260505123037 13 199 12.9 29.0 0.00 1.50 0.00 55 1010.0
20260505121604 13 185 14.5 29.0 0.00 1.50 0.00 55 1010.0
20260505120031 13 190 9.7 30.6 0.00 1.50 0.00 57 1009.5
20260505114535 12 279 11.3 27.4 0.00 1.52 0.00 59 1009.5
20260505113032 12 188 6.4 19.3 0.00 1.52 0.00 60 1009.2
20260505111539 11 288 4.8 16.1 0.00 1.52 0.00 64 1009.3